Flag for Russia Weather past 2 weeks in Yuzhno-Sakhalinsk, Russia

Now
41 °F

Passing clouds.


Feels Like: 37 °F
Forecast: 41 / 53 °F
Wind: 6 mph from Southwest

Location: Yuzhno Airport-Sakhalinsk

Current Time: May 5, 2015 at 10:18:08 PM

Latest Report: May 5, 2015 at 9:30 PM


Visibility: N/A

Pressure: 29.47 "Hg

Humidity: 87%

Dew point: 37 °F

Location of Yuzhno-SakhalinskLocation

Historic Weather in Yuzhno-Sakhalinsk — Graph

°F

Yuzhno-Sakhalinsk temperature yesterday

Maximum temperature yesterday: 37 °F (at 12:00 PM)
Minimum temperature yesterday: 34 °F (at 1:00 AM)
Average temperature yesterday: 35 °F

Past Weeks' High & Low Weather Summary

 TemperatureHumidityPressure
High63 °F (May 1, 10:30 AM)100% (Apr 20, 9:30 PM)30.12 "Hg (Apr 20, 9:30 PM)
Low27 °F (Apr 23, 5:00 AM)24% (May 1, 10:30 AM)29.24 "Hg (May 5, 9:30 AM)
Average44 °F74%29.76 "Hg
* Reported Apr 20 9:00 PM — May 5 9:00 PM, Yuzhno-Sakhalinsk, Weather by CustomWeather, © 2015

Note: Actual official high and low records may vary slightly from our data, if they occured in-between our weather recording intervals... More about our weather records

Advertising

Yuzhno-Sakhalinsk weather history for previous 24 hours

 ConditionsComfort  
Time TempWeatherWind HumidityBarometerVisibility
9:00 PM
Tue, May 5
43 °FPassing clouds.6 mph87%29.45 "HgN/A
8:30 PM43 °FPassing clouds.10 mph87%29.45 "HgN/A
8:00 PM41 °FPassing clouds.10 mph93%29.42 "HgN/A
7:30 PM41 °FPartly sunny.10 mph93%29.39 "HgN/A
7:00 PM43 °FSprinkles. Partly sunny.15 mph87%29.39 "HgN/A
6:30 PM43 °FSprinkles. Partly sunny.13 mph87%29.36 "HgN/A
6:00 PM45 °FSprinkles. Partly sunny.15 mph81%29.36 "HgN/A
5:30 PM45 °FSprinkles. Partly sunny.15 mph81%29.33 "HgN/A
5:00 PM46 °FSprinkles. Partly sunny.17 mph76%29.30 "Hg3 mi
4:30 PM48 °FSprinkles. Partly sunny.17 mph76%29.30 "HgN/A
4:00 PM46 °FSprinkles. Partly sunny.17 mph76%29.30 "HgN/A
3:30 PM46 °FPartly sunny.10 mph76%29.27 "HgN/A
3:00 PM50 °FSprinkles. Partly sunny.22 mph62%29.27 "HgN/A
2:30 PM50 °FPartly sunny.22 mph62%29.27 "HgN/A
2:00 PM48 °FPartly sunny.17 mph71%29.27 "HgN/A
1:30 PM50 °FPartly sunny.17 mph71%29.24 "HgN/A
1:00 PM46 °FPartly sunny.13 mph82%29.24 "HgN/A
12:30 PM45 °FPartly sunny.13 mph87%29.24 "HgN/A
12:00 PM45 °FPartly sunny.13 mph87%29.24 "HgN/A
11:30 AM45 °FPartly sunny.20 mph81%29.24 "HgN/A
11:00 AM48 °FPartly sunny.17 mph76%29.24 "HgN/A
10:30 AM46 °FPartly sunny.15 mph82%29.24 "HgN/A
10:00 AM45 °FPartly sunny.15 mph87%29.24 "HgN/A
9:30 AM45 °FPartly sunny.15 mph87%29.24 "HgN/A
9:00 AM43 °FPartly sunny.10 mph93%29.27 "HgN/A
8:30 AM43 °FBroken clouds.15 mph93%29.27 "HgN/A
8:00 AM43 °FSprinkles. Partly sunny.17 mph100%29.27 "HgN/A
7:00 AM41 °FSprinkles. Partly sunny.8 mph100%29.27 "HgN/A
6:30 AM36 °FRain showers. Fog.3 mph100%29.27 "Hg2 mi
6:00 AM36 °FRain showers. Fog.8 mph93%29.27 "Hg2 mi
5:00 AM36 °FSprinkles. Partly cloudy.15 mph93%29.27 "Hg4 mi
4:00 AM34 °FSprinkles. Passing clouds.13 mph100%29.30 "Hg4 mi
3:00 AM34 °FSprinkles. Passing clouds.15 mph100%29.30 "Hg4 mi
2:00 AM34 °FRain showers. Fog.22 mph100%29.33 "Hg3 mi
1:00 AM34 °FSprinkles. Passing clouds.24 mph100%29.42 "Hg5 mi
12:00 AM34 °FSprinkles. Passing clouds.29 mph100%29.42 "Hg5 mi
11:00 PM
Mon, May 4
34 °FSprinkles. Passing clouds.22 mph100%29.50 "Hg5 mi
10:00 PM34 °FSprinkles. Passing clouds.26 mph100%29.53 "Hg4 mi
Weather by CustomWeather, © 2015

See weather overviewHow to use our weather pages